| time (UTC) | temp C | wind direction | speed KPH | gust KPH | rain 1hr cm | rain 24hr cm | rain mn cm | humidity % | barometer mb |
| 20260502183016 | 11 | 262 | 3.2 | 9.7 | 0.00 | 0.00 | 0.00 | 49 | 997.9 |
| 20260502182440 | 11 | 230 | 1.6 | 4.8 | 0.00 | 0.00 | 0.00 | 48 | 997.9 |
| 20260502181833 | 11 | 223 | 1.6 | 3.2 | 0.00 | 0.00 | 0.00 | 48 | 997.6 |
| 20260502181254 | 11 | 250 | 1.6 | 4.8 | 0.00 | 0.00 | 0.00 | 57 | 997.9 |
| 20260502180621 | 11 | 244 | 1.6 | 6.4 | 0.00 | 0.00 | 0.00 | 54 | 997.9 |
| 20260502164244 | 12 | 257 | 4.8 | 4.8 | 0.00 | 0.00 | 0.00 | 51 | 998.3 |
| 20260502163631 | 11 | 215 | 3.2 | 3.2 | 0.00 | 0.00 | 0.00 | 48 | 998.6 |
| 20260502163053 | 11 | 274 | 4.8 | 4.8 | 0.00 | 0.00 | 0.00 | 52 | 998.6 |
| 20260502162442 | 12 | 261 | 6.4 | 11.3 | 0.00 | 0.00 | 0.00 | 53 | 998.6 |
| 20260502161816 | 12 | 245 | 1.6 | 4.8 | 0.00 | 0.00 | 0.00 | 49 | 998.6 |
| 20260502161221 | 11 | 214 | 3.2 | 6.4 | 0.00 | 0.00 | 0.00 | 55 | 998.9 |
| 20260502160623 | 11 | 257 | 3.2 | 11.3 | 0.00 | 0.00 | 0.00 | 52 | 998.6 |
| 20260502151833 | 11 | 229 | 6.4 | 9.7 | 0.00 | 0.00 | 0.00 | 55 | 998.9 |
| 20260502151241 | 11 | 221 | 1.6 | 11.3 | 0.00 | 0.00 | 0.00 | 60 | 998.9 |
| 20260502150650 | 11 | 220 | 3.2 | 6.4 | 0.00 | 0.00 | 0.00 | 56 | 998.9 |
| 20260502130631 | 5 | 259 | 1.6 | 1.6 | 0.00 | 0.00 | 0.00 | 99 | 998.9 |
| 20260502123635 | 4 | 273 | 0.0 | 0.0 | 0.00 | 0.00 | 0.00 | 99 | 998.9 |
| 20260502122440 | 3 | 256 | 0.0 | 0.0 | 0.00 | 0.00 | 0.00 | 99 | 998.9 |
| 20260502121222 | 3 | 250 | 0.0 | 1.6 | 0.00 | 0.00 | 0.00 | 99 | 998.9 |
| 20260502120644 | 3 | 249 | 0.0 | 0.0 | 0.00 | 0.00 | 0.00 | 99 | 998.9 |
| 20260502115451 | 4 | 253 | 0.0 | 1.6 | 0.00 | 0.00 | 0.00 | 99 | 999.3 |
| 20260502114813 | 3 | 244 | 0.0 | 1.6 | 0.00 | 0.00 | 0.00 | 99 | 998.9 |
| 20260502114232 | 3 | 225 | 0.0 | 0.0 | 0.00 | 0.00 | 0.00 | 99 | 998.9 |
| 20260502113611 | 3 | 252 | 0.0 | 0.0 | 0.00 | 0.00 | 0.00 | 99 | 998.9 |
| 20260502113039 | 3 | 247 | 0.0 | 1.6 | 0.00 | 0.00 | 0.00 | 99 | 998.9 |
| 20260502112437 | 3 | 238 | 0.0 | 0.0 | 0.00 | 0.00 | 0.00 | 99 | 998.9 |
| 20260502111828 | 3 | 237 | 0.0 | 0.0 | 0.00 | 0.00 | 0.00 | 99 | 998.6 |
| 20260502111226 | 3 | 218 | 0.0 | 1.6 | 0.00 | 0.00 | 0.00 | 99 | 998.6 |
| 20260502110017 | 3 | 236 | 0.0 | 0.0 | 0.00 | 0.00 | 0.00 | 99 | 998.6 |
| 20260502105418 | 3 | 226 | 0.0 | 1.6 | 0.00 | 0.00 | 0.00 | 99 | 998.6 |
| 20260502104829 | 3 | 237 | 0.0 | 0.0 | 0.00 | 0.00 | 0.00 | 99 | 998.6 |
| 20260502104217 | 3 | 238 | 0.0 | 0.0 | 0.00 | 0.00 | 0.00 | 99 | 998.6 |
| 20260502103635 | 3 | 242 | 0.0 | 0.0 | 0.00 | 0.00 | 0.00 | 99 | 998.6 |
| 20260502103043 | 3 | 240 | 0.0 | 0.0 | 0.00 | 0.00 | 0.00 | 99 | 998.6 |
| 20260502102419 | 3 | 233 | 0.0 | 1.6 | 0.00 | 0.00 | 0.00 | 99 | 998.6 |
| 20260502101846 | 3 | 226 | 1.6 | 1.6 | 0.00 | 0.00 | 0.00 | 99 | 998.9 |
| 20260502100630 | 3 | 231 | 0.0 | 0.0 | 0.00 | 0.00 | 0.00 | 99 | 998.9 |
| 20260502091252 | 3 | 236 | 0.0 | 1.6 | 0.00 | 0.00 | 0.00 | 99 | 998.9 |
| 20260502090624 | 3 | 223 | 0.0 | 3.2 | 0.00 | 0.00 | 0.00 | 99 | 998.9 |
| 20260502071224 | 3 | 211 | 0.0 | 1.6 | 0.00 | 0.00 | 0.00 | 99 | 998.3 |
| 20260502070652 | 3 | 229 | 0.0 | 1.6 | 0.00 | 0.00 | 0.00 | 99 | 998.6 |
| 20260502070035 | 3 | 201 | 0.0 | 1.6 | 0.00 | 0.00 | 0.00 | 99 | 998.6 |
| 20260502063651 | 3 | 220 | 1.6 | 1.6 | 0.00 | 0.00 | 0.00 | 99 | 998.6 |
| 20260502063042 | 3 | 234 | 0.0 | 1.6 | 0.00 | 0.00 | 0.00 | 99 | 998.9 |
| 20260502061814 | 3 | 225 | 1.6 | 1.6 | 0.00 | 0.00 | 0.00 | 99 | 998.9 |
| 20260502061249 | 3 | 227 | 0.0 | 1.6 | 0.00 | 0.00 | 0.00 | 99 | 998.9 |
| 20260502060622 | 3 | 225 | 0.0 | 0.0 | 0.00 | 0.00 | 0.00 | 99 | 998.9 |
| 20260502060047 | 3 | 228 | 0.0 | 1.6 | 0.00 | 0.00 | 0.00 | 99 | 998.9 |
| 20260502055448 | 3 | 230 | 0.0 | 0.0 | 0.00 | 0.00 | 0.00 | 99 | 998.9 |
| 20260502054820 | 3 | 222 | 0.0 | 1.6 | 0.00 | 0.00 | 0.00 | 99 | 999.3 |
| 20260502054250 | 3 | 232 | 0.0 | 0.0 | 0.00 | 0.00 | 0.00 | 99 | 998.9 |
| 20260502053021 | 3 | 226 | 0.0 | 1.6 | 0.00 | 0.00 | 0.00 | 99 | 999.3 |
| 20260502052415 | 3 | 228 | 0.0 | 0.0 | 0.00 | 0.00 | 0.00 | 99 | 999.3 |
| 20260502051826 | 3 | 228 | 0.0 | 0.0 | 0.00 | 0.00 | 0.00 | 99 | 998.9 |
| 20260502051220 | 3 | 232 | 0.0 | 0.0 | 0.00 | 0.00 | 0.00 | 99 | 999.3 |
| 20260502050628 | 3 | 226 | 1.6 | 1.6 | 0.00 | 0.00 | 0.00 | 99 | 998.9 |
| 20260502050039 | 3 | 226 | 0.0 | 1.6 | 0.00 | 0.00 | 0.00 | 99 | 999.3 |
| 20260502045433 | 3 | 226 | 0.0 | 1.6 | 0.00 | 0.00 | 0.00 | 99 | 998.9 |
| 20260502044838 | 3 | 223 | 1.6 | 1.6 | 0.00 | 0.00 | 0.00 | 99 | 999.3 |
| 20260502043629 | 3 | 233 | 0.0 | 1.6 | 0.00 | 0.00 | 0.00 | 98 | 998.9 |
| 20260502043043 | 4 | 232 | 1.6 | 1.6 | 0.00 | 0.00 | 0.00 | 98 | 999.3 |
| 20260502042435 | 4 | 240 | 0.0 | 1.6 | 0.00 | 0.00 | 0.00 | 98 | 999.3 |
| 20260502041810 | 4 | 233 | 0.0 | 1.6 | 0.00 | 0.00 | 0.00 | 98 | 999.3 |
| 20260502041217 | 4 | 227 | 1.6 | 1.6 | 0.00 | 0.00 | 0.00 | 98 | 999.3 |
| 20260502040649 | 4 | 227 | 0.0 | 1.6 | 0.00 | 0.00 | 0.00 | 98 | 999.3 |
| 20260502040019 | 4 | 232 | 0.0 | 0.0 | 0.00 | 0.00 | 0.00 | 97 | 998.9 |
| 20260502035442 | 5 | 215 | 1.6 | 1.6 | 0.00 | 0.00 | 0.00 | 97 | 999.3 |
| 20260502034810 | 5 | 226 | 0.0 | 1.6 | 0.00 | 0.00 | 0.00 | 97 | 999.3 |
| 20260502034246 | 5 | 226 | 0.0 | 1.6 | 0.00 | 0.00 | 0.00 | 97 | 998.9 |
| 20260502033649 | 5 | 232 | 0.0 | 0.0 | 0.00 | 0.00 | 0.00 | 96 | 998.9 |
| 20260502033012 | 5 | 225 | 0.0 | 1.6 | 0.00 | 0.00 | 0.00 | 95 | 998.9 |
| 20260502032426 | 5 | 226 | 0.0 | 1.6 | 0.00 | 0.00 | 0.00 | 95 | 998.9 |
| 20260502031841 | 5 | 235 | 0.0 | 0.0 | 0.00 | 0.00 | 0.00 | 95 | 998.9 |
| 20260502031213 | 5 | 232 | 0.0 | 1.6 | 0.00 | 0.00 | 0.00 | 94 | 998.9 |
| 20260502030616 | 6 | 233 | 0.0 | 0.0 | 0.00 | 0.00 | 0.00 | 93 | 998.9 |
| 20260502030046 | 6 | 240 | 0.0 | 0.0 | 0.00 | 0.00 | 0.00 | 93 | 998.9 |
| 20260502025414 | 6 | 235 | 0.0 | 0.0 | 0.00 | 0.00 | 0.00 | 93 | 998.9 |
| 20260502024827 | 6 | 233 | 0.0 | 0.0 | 0.00 | 0.00 | 0.00 | 92 | 999.3 |
| 20260502024219 | 6 | 233 | 0.0 | 0.0 | 0.00 | 0.00 | 0.00 | 91 | 999.3 |
| 20260502023624 | 6 | 233 | 0.0 | 1.6 | 0.00 | 0.00 | 0.00 | 91 | 999.3 |
| 20260502023047 | 6 | 223 | 1.6 | 1.6 | 0.00 | 0.00 | 0.00 | 90 | 998.9 |
| 20260502022427 | 6 | 224 | 1.6 | 1.6 | 0.00 | 0.00 | 0.00 | 89 | 998.9 |
| 20260502021812 | 7 | 222 | 1.6 | 1.6 | 0.00 | 0.00 | 0.00 | 89 | 998.9 |
| 20260502021234 | 7 | 223 | 0.0 | 1.6 | 0.00 | 0.00 | 0.00 | 88 | 998.9 |
| 20260502020614 | 7 | 233 | 0.0 | 0.0 | 0.00 | 0.00 | 0.00 | 87 | 998.3 |
| 20260502020036 | 8 | 227 | 1.6 | 1.6 | 0.00 | 0.00 | 0.00 | 84 | 998.3 |
| 20260502015431 | 8 | 240 | 0.0 | 1.6 | 0.00 | 0.00 | 0.00 | 84 | 998.3 |
| 20260502014842 | 9 | 243 | 1.6 | 1.6 | 0.00 | 0.00 | 0.00 | 82 | 998.3 |
| 20260502014227 | 9 | 234 | 0.0 | 1.6 | 0.00 | 0.00 | 0.00 | 77 | 998.3 |
| 20260502013620 | 9 | 243 | 1.6 | 1.6 | 0.00 | 0.00 | 0.00 | 77 | 998.3 |
| 20260502013036 | 9 | 235 | 3.2 | 3.2 | 0.00 | 0.00 | 0.00 | 77 | 998.3 |
| 20260502012450 | 9 | 241 | 0.0 | 1.6 | 0.00 | 0.00 | 0.00 | 76 | 998.3 |
| 20260502011841 | 10 | 243 | 1.6 | 3.2 | 0.00 | 0.00 | 0.00 | 74 | 997.9 |
| 20260502011224 | 10 | 237 | 0.0 | 1.6 | 0.00 | 0.00 | 0.00 | 72 | 997.9 |
| 20260502010625 | 10 | 241 | 1.6 | 3.2 | 0.00 | 0.00 | 0.00 | 71 | 997.6 |
| 20260502010053 | 10 | 245 | 3.2 | 3.2 | 0.00 | 0.00 | 0.00 | 71 | 997.6 |
| 20260502005446 | 10 | 234 | 1.6 | 3.2 | 0.00 | 0.00 | 0.00 | 72 | 997.6 |
| 20260502004843 | 10 | 259 | 4.8 | 6.4 | 0.00 | 0.00 | 0.00 | 69 | 997.2 |
| 20260502004227 | 10 | 237 | 0.0 | 3.2 | 0.00 | 0.00 | 0.00 | 70 | 997.2 |
| 20260502003649 | 10 | 262 | 4.8 | 6.4 | 0.00 | 0.00 | 0.00 | 68 | 996.9 |
| 20260502002449 | 11 | 233 | 6.4 | 9.7 | 0.00 | 0.00 | 0.00 | 70 | 996.9 |
| 20260502001832 | 11 | 239 | 4.8 | 6.4 | 0.00 | 0.00 | 0.00 | 71 | 996.9 |
| 20260502001246 | 11 | 231 | 1.6 | 9.7 | 0.00 | 0.00 | 0.00 | 67 | 996.6 |
| 20260502000031 | 12 | 263 | 6.4 | 14.5 | 0.00 | 0.00 | 0.00 | 70 | 996.2 |
| 20260501235453 | 12 | 240 | 1.6 | 3.2 | 0.00 | 0.00 | 0.00 | 72 | 996.2 |
| 20260501234840 | 12 | 239 | 3.2 | 4.8 | 0.00 | 0.00 | 0.00 | 72 | 996.2 |
| 20260501234253 | 12 | 262 | 6.4 | 6.4 | 0.00 | 0.00 | 0.00 | 70 | 995.5 |
| 20260501233644 | 12 | 246 | 3.2 | 6.4 | 0.00 | 0.00 | 0.00 | 72 | 995.5 |
| 20260501233024 | 12 | 244 | 1.6 | 11.3 | 0.00 | 0.00 | 0.00 | 68 | 995.5 |
| 20260501232442 | 12 | 245 | 3.2 | 6.4 | 0.00 | 0.00 | 0.00 | 68 | 995.5 |
| 20260501231817 | 12 | 242 | 6.4 | 6.4 | 0.00 | 0.00 | 0.00 | 67 | 995.5 |
| 20260501231255 | 12 | 242 | 1.6 | 4.8 | 0.00 | 0.00 | 0.00 | 68 | 995.5 |
| 20260501230650 | 13 | 261 | 4.8 | 9.7 | 0.00 | 0.00 | 0.00 | 67 | 995.2 |
| 20260501230036 | 13 | 239 | 1.6 | 1.6 | 0.00 | 0.00 | 0.00 | 66 | 995.5 |
| 20260501225415 | 13 | 255 | 4.8 | 4.8 | 0.00 | 0.00 | 0.00 | 67 | 995.2 |
| 20260501224827 | 13 | 230 | 1.6 | 3.2 | 0.00 | 0.00 | 0.00 | 66 | 995.2 |
| 20260501224233 | 12 | 243 | 4.8 | 11.3 | 0.00 | 0.00 | 0.00 | 65 | 995.2 |
| 20260501223616 | 13 | 218 | 3.2 | 12.9 | 0.00 | 0.00 | 0.00 | 64 | 995.2 |
| 20260501223053 | 13 | 249 | 3.2 | 11.3 | 0.00 | 0.00 | 0.00 | 66 | 995.2 |
| 20260501222451 | 13 | 260 | 3.2 | 6.4 | 0.00 | 0.00 | 0.00 | 66 | 994.9 |
| 20260501221839 | 13 | 239 | 3.2 | 3.2 | 0.00 | 0.00 | 0.00 | 68 | 995.2 |
| 20260501221246 | 13 | 233 | 0.0 | 6.4 | 0.00 | 0.00 | 0.00 | 68 | 995.2 |
| 20260501220645 | 12 | 220 | 3.2 | 9.7 | 0.00 | 0.00 | 0.00 | 69 | 995.2 |
| 20260501220021 | 12 | 250 | 1.6 | 3.2 | 0.00 | 0.00 | 0.00 | 71 | 994.9 |
| 20260501215415 | 12 | 218 | 4.8 | 4.8 | 0.00 | 0.00 | 0.00 | 71 | 994.9 |
| 20260501214238 | 12 | 245 | 1.6 | 3.2 | 0.00 | 0.00 | 0.00 | 68 | 995.2 |
| 20260501213041 | 12 | 239 | 3.2 | 3.2 | 0.00 | 0.00 | 0.00 | 71 | 994.9 |
| 20260501211829 | 12 | 255 | 1.6 | 1.6 | 0.00 | 0.00 | 0.00 | 71 | 994.9 |
| 20260501211210 | 12 | 228 | 1.6 | 3.2 | 0.00 | 0.00 | 0.00 | 73 | 994.5 |
| 20260501210617 | 12 | 244 | 1.6 | 3.2 | 0.00 | 0.00 | 0.00 | 73 | 994.9 |
| 20260501210030 | 12 | 268 | 3.2 | 4.8 | 0.00 | 0.00 | 0.00 | 71 | 994.5 |
| 20260501205421 | 12 | 247 | 3.2 | 4.8 | 0.00 | 0.00 | 0.00 | 73 | 994.9 |
| 20260501204849 | 13 | 257 | 3.2 | 4.8 | 0.00 | 0.00 | 0.00 | 74 | 994.5 |
| 20260501203622 | 13 | 238 | 1.6 | 3.2 | 0.00 | 0.00 | 0.00 | 74 | 994.5 |
| 20260501202444 | 13 | 237 | 4.8 | 9.7 | 0.00 | 0.00 | 0.00 | 73 | 994.5 |
| 20260501201809 | 13 | 271 | 6.4 | 6.4 | 0.00 | 0.00 | 0.00 | 73 | 994.5 |
| 20260501201239 | 13 | 283 | 9.7 | 19.3 | 0.00 | 0.00 | 0.00 | 72 | 994.5 |
| 20260501200048 | 14 | 218 | 8.0 | 11.3 | 0.00 | 0.00 | 0.00 | 66 | 994.5 |
| 20260501194853 | 15 | 262 | 8.0 | 22.5 | 0.00 | 0.00 | 0.00 | 64 | 994.2 |
| 20260501194230 | 15 | 273 | 3.2 | 4.8 | 0.00 | 0.00 | 0.00 | 64 | 993.9 |
| 20260501193623 | 15 | 235 | 6.4 | 9.7 | 0.00 | 0.00 | 0.00 | 61 | 993.9 |
| 20260501193039 | 15 | 245 | 4.8 | 6.4 | 0.00 | 0.00 | 0.00 | 63 | 993.9 |
| 20260501192423 | 15 | 252 | 1.6 | 4.8 | 0.00 | 0.00 | 0.00 | 64 | 993.9 |
| 20260501191236 | 15 | 240 | 1.6 | 4.8 | 0.00 | 0.00 | 0.00 | 61 | 994.2 |
| 20260501190645 | 15 | 271 | 3.2 | 4.8 | 0.00 | 0.00 | 0.00 | 63 | 993.9 |
| 20260501190012 | 15 | 236 | 1.6 | 4.8 | 0.00 | 0.00 | 0.00 | 58 | 993.9 |
| 20260501185428 | 16 | 233 | 1.6 | 4.8 | 0.00 | 0.00 | 0.00 | 60 | 993.9 |
| 20260501184841 | 16 | 235 | 1.6 | 3.2 | 0.00 | 0.00 | 0.00 | 60 | 993.9 |
| 20260501184223 | 16 | 153 | 4.8 | 4.8 | 0.00 | 0.00 | 0.00 | 55 | 993.9 |
| 20260501183648 | 16 | 231 | 1.6 | 4.8 | 0.00 | 0.00 | 0.00 | 57 | 993.5 |